This demonstration page uses our WeatherBlox Daily Observations layout. Learn more.

Left ArrowRight Arrow

41.55636, -103.73856

Hourly Observations for February 25, 2018

Temp ( °F °C ) Dew Point ( °F °C ) Humidity (%) Winds ( mph kmh ) Pressure ( in mb ) Visibility ( mi km ) Precip ( " mm )
12:53 am 00:53 Clear 26 -3.3 14 -10 60 60 WNW 8 13 29.90 1012 10 16 N/A
1:53 am 01:53 Clear 25 -3.9 13 -10.6 60 60 WNW 7 11 29.90 1013 10 16 N/A
2:53 am 02:53 Clear 22 -5.6 13 -10.6 68 68 WNW 6 9 29.89 1012 10 16 N/A
3:53 am 03:53 Clear 25 -3.9 12 -11.1 58 58 W 10 17 29.87 1012 10 16 N/A
4:53 am 04:53 Clear 26 -3.3 12 -11.1 55 55 W 17 28 29.87 1012 10 16 N/A
5:53 am 05:53 Clear 22 -5.6 12 -11.1 66 66 WNW 8 13 29.91 1013 10 16 N/A
6:53 am 06:53 Partly Cloudy 27 -2.8 13 -10.6 55 55 W 20 31 29.92 1013 10 16 N/A
7:53 am 07:53 Sunny 27 -2.8 13 -10.6 55 55 W 12 19 29.96 1014 10 16 N/A
8:53 am 08:53 Sunny 30 -1.1 13 -10.6 49 49 W 22 35 29.95 1014 10 16 N/A
9:53 am 09:53 Sunny 33 0.6 13 -10.6 43 43 W 21 33 29.96 1015 10 16 N/A
10:53 am 10:53 Sunny 34 1.1 15 -9.4 46 46 W 23 37 29.95 1014 10 16 N/A
11:53 am 11:53 Sunny 35 1.7 14 -10 42 42 WNW 22 35 29.93 1014 10 16 N/A
12:53 pm 12:53 Mostly Sunny 37 2.8 14 -10 39 39 W 25 41 29.91 1013 10 16 N/A
1:53 pm 13:53 Sunny 37 2.8 15 -9.4 41 41 W 21 33 29.92 1013 10 16 N/A
2:53 pm 14:53 Sunny 37 2.8 15 -9.4 41 41 W 22 35 29.94 1014 10 16 N/A
3:53 pm 15:53 Sunny 37 2.8 15 -9.4 41 41 W 24 39 29.95 1014 10 16 N/A
4:53 pm 16:53 Sunny 36 2.2 14 -10 40 40 W 17 28 29.97 1015 10 16 N/A
5:53 pm 17:53 Clear 34 1.1 13 -10.6 42 42 W 17 28 29.99 1016 10 16 N/A
6:53 pm 18:53 Clear 32 undefined 13 -10.6 45 45 W 17 28 30.01 1016 10 16 N/A
7:53 pm 19:53 Clear 33 0.6 11 -11.7 40 40 W 17 28 30.01 1016 10 16 N/A
8:53 pm 20:53 Clear 31 -0.6 12 -11.1 45 45 W 16 26 30.01 1016 10 16 N/A
9:53 pm 21:53 Clear 26 -3.3 12 -11.1 55 55 W 8 13 30.02 1017 10 16 N/A
10:53 pm 22:53 Clear 24 -4.4 12 -11.1 60 60 S 3 6 30.02 1017 10 16 N/A
11:53 pm 23:53 Clear 21 -6.1 14 -10 74 74 E 6 9 30.01 1016 10 16 N/A

Powered by AerisWeather